period_start,C,m1,H,J0,J1,J2,J3,J4,J5,JA,JB,JC,JD,JJ,JK,JN,#
2017-07-16 00:01:15,-0.02,0.29,0.00,20.92,24.93,27.98,14.16,45.11,1024.69,2043.27,3440.98,3021.64,3463.16,600.43,605.54,40.29,0000 0000 0000 0000 000000
2017-07-16 00:06:17,0.01,0.29,0.00,20.93,24.95,28.01,14.19,45.00,1024.58,2043.15,3440.80,3021.20,3463.01,600.36,605.34,40.34,0000 0000 0000 0000 000000
2017-07-16 00:11:18,0.02,0.30,0.00,20.95,24.96,28.00,14.03,44.89,1024.45,2043.08,3440.03,3020.88,3462.15,599.32,604.07,40.39,0000 0000 0000 0000 000000
2017-07-16 00:16:19,0.01,0.30,0.00,20.98,24.97,28.02,14.16,45.05,1024.46,2043.02,3439.91,3020.24,3462.00,600.00,604.68,40.44,0000 0000 0000 0000 000000
2017-07-16 00:21:20,0.01,0.30,0.00,21.01,24.98,28.05,14.14,45.58,1024.44,2043.00,3439.49,3020.04,3461.99,599.95,604.60,40.49,0000 0000 0000 0000 000000
2017-07-16 00:26:21,0.03,0.30,0.00,21.03,25.00,28.02,14.17,45.03,1024.45,2043.00,3439.06,3019.75,3461.51,600.08,604.79,40.54,0000 0000 0000 0000 000000
2017-07-16 00:31:23,0.01,0.30,0.00,21.06,25.02,28.05,14.07,44.96,1024.44,2043.00,3438.88,3019.21,3460.98,599.80,604.45,40.59,0000 0000 0000 0000 000000
2017-07-16 00:36:24,0.00,0.30,0.00,21.09,25.03,28.02,14.13,45.08,1024.45,2043.00,3438.85,3019.10,3460.96,600.28,604.79,40.64,0000 0000 0000 0000 000000
2017-07-16 00:41:26,0.02,0.30,0.00,21.12,25.05,28.05,14.08,45.12,1024.44,2042.98,3438.52,3019.01,3460.52,600.10,604.64,40.69,0000 0000 0000 0000 000000
2017-07-16 00:46:27,0.00,0.30,0.00,21.16,25.07,28.06,14.10,45.02,1024.45,2042.97,3438.32,3019.00,3460.13,600.21,604.68,40.74,0000 0000 0000 0000 000000
2017-07-16 00:51:29,-0.00,0.30,0.00,21.19,25.09,28.06,14.06,44.95,1024.44,2042.95,3438.01,3018.99,3460.01,599.79,604.18,40.79,0000 0000 0000 0000 000000
2017-07-16 00:56:30,0.00,0.30,0.00,21.21,25.11,28.09,14.05,44.93,1024.44,2042.93,3437.99,3018.97,3460.00,599.98,604.32,40.84,0000 0000 0000 0000 000000
2017-07-16 01:01:31,-0.03,0.30,0.00,21.25,25.13,28.10,14.05,45.27,1024.43,2042.48,3437.83,3018.55,3459.90,600.09,604.19,40.89,0000 0000 0000 0000 000000
2017-07-16 01:06:33,0.00,0.30,0.00,21.28,25.16,28.11,14.18,45.17,1024.44,2042.05,3437.31,3018.06,3459.27,599.78,603.79,40.94,0000 0000 0000 0000 000000
2017-07-16 01:11:34,0.00,0.30,0.00,21.32,25.18,28.14,14.08,44.95,1024.45,2042.02,3437.06,3018.00,3459.04,599.87,603.86,40.99,0000 0000 0000 0000 000000
2017-07-16 01:16:35,0.00,0.30,0.00,21.36,25.20,28.14,14.13,44.93,1024.44,2042.01,3437.01,3018.00,3459.00,600.42,604.32,41.04,0000 0000 0000 0000 000000
2017-07-16 01:21:36,0.00,0.30,0.00,21.40,25.22,28.18,14.18,45.23,1024.44,2042.00,3436.99,3017.98,3458.98,600.64,604.53,41.10,0000 0000 0000 0000 000000
2017-07-16 01:26:37,0.00,0.30,0.00,21.43,25.25,28.15,14.07,45.10,1024.44,2042.00,3436.96,3017.94,3458.87,600.06,603.93,41.15,0000 0000 0000 0000 000000
2017-07-16 01:31:38,0.03,0.30,0.00,21.46,25.28,28.18,14.11,44.93,1024.43,2041.99,3436.64,3017.47,3458.25,600.25,603.97,41.20,0000 0000 0000 0000 000000
2017-07-16 01:36:39,0.01,0.30,0.00,21.50,25.31,28.21,14.09,44.92,1024.43,2041.98,3436.18,3017.07,3458.03,600.15,603.77,41.25,0000 0000 0000 0000 000000
2017-07-16 01:41:41,-0.03,0.30,0.00,21.54,25.33,28.21,14.07,45.20,1024.43,2041.77,3436.04,3017.02,3458.00,599.86,603.59,41.30,0000 0000 0000 0000 000000
2017-07-16 01:46:43,-0.04,0.30,0.00,21.57,25.36,28.22,14.06,45.38,1024.43,2041.30,3436.00,3017.00,3457.92,600.23,603.75,41.35,0000 0000 0000 0000 000000
2017-07-16 01:51:44,0.00,0.30,0.00,21.60,25.39,28.20,14.15,45.65,1024.43,2041.02,3435.93,3016.92,3457.19,600.36,603.91,41.40,0000 0000 0000 0000 000000
2017-07-16 01:56:45,0.03,0.30,0.00,21.64,25.41,28.23,14.08,45.58,1024.43,2041.00,3435.45,3016.41,3457.01,599.84,603.23,41.45,0000 0000 0000 0000 000000
2017-07-16 02:01:46,0.00,0.30,0.00,21.67,25.44,28.25,14.07,45.86,1024.43,2041.00,3435.03,3016.03,3456.99,600.18,603.41,41.50,0000 0000 0000 0000 000000
2017-07-16 02:06:48,0.00,0.30,0.00,21.70,25.47,28.27,13.98,45.20,1024.44,2040.99,3435.00,3016.00,3456.87,599.68,603.01,41.55,0000 0000 0000 0000 000000
2017-07-16 02:11:49,0.01,0.30,0.00,21.74,25.51,28.27,14.07,45.42,1024.44,2040.97,3434.98,3015.99,3456.23,600.27,603.43,41.60,0000 0000 0000 0000 000000
2017-07-16 02:16:50,-0.00,0.30,0.00,21.77,25.53,28.27,14.10,45.36,1024.44,2040.92,3434.78,3015.90,3456.01,600.14,603.29,41.65,0000 0000 0000 0000 000000
2017-07-16 02:21:51,-0.01,0.30,0.00,21.81,25.56,28.32,14.03,45.33,1024.44,2040.60,3434.08,3015.28,3456.00,599.81,602.81,41.70,0000 0000 0000 0000 000000
2017-07-16 02:26:52,-0.02,0.30,0.00,21.84,25.60,28.33,14.05,45.17,1024.44,2040.22,3434.00,3015.02,3455.90,599.88,602.88,41.75,0000 0000 0000 0000 000000
2017-07-16 02:31:53,0.00,0.30,0.00,21.88,25.63,28.38,14.11,45.39,1024.43,2040.04,3433.97,3015.00,3455.15,599.99,602.88,41.80,0000 0000 0000 0000 000000
2017-07-16 02:36:55,0.01,0.30,0.00,21.91,25.66,28.40,14.08,45.22,1024.43,2040.00,3433.70,3014.96,3455.02,600.48,603.30,41.85,0000 0000 0000 0000 000000
2017-07-16 02:41:56,0.02,0.30,0.00,21.93,25.69,28.41,13.99,45.12,1024.43,2040.00,3433.10,3014.46,3454.98,599.13,601.95,41.90,0000 0000 0000 0000 000000
2017-07-16 02:46:57,0.05,0.30,0.00,21.96,25.73,28.46,14.03,45.30,1024.43,2040.00,3432.64,3013.69,3453.93,600.34,602.95,41.95,0000 0000 0000 0000 000000
2017-07-16 02:51:58,0.02,0.31,0.00,22.00,25.76,28.48,14.04,44.92,1024.42,2039.99,3432.01,3013.01,3453.02,599.44,602.09,42.00,0000 0000 0000 0000 000000
2017-07-16 02:57:00,0.01,0.31,0.00,22.04,25.79,28.51,14.02,45.06,1024.43,2039.97,3431.77,3012.92,3452.95,600.25,602.84,42.05,0000 0000 0000 0000 000000
2017-07-16 03:02:01,0.02,0.31,0.00,22.08,25.83,28.54,13.98,45.04,1024.43,2039.90,3431.21,3012.59,3452.71,600.11,602.55,42.10,0000 0000 0000 0000 000000
2017-07-16 03:07:02,-0.04,0.31,0.00,22.11,25.86,28.56,14.08,45.48,1024.42,2039.42,3431.01,3012.09,3452.09,600.16,602.60,42.15,0000 0000 0000 0000 000000
2017-07-16 03:12:04,-0.01,0.30,0.00,22.14,25.89,28.57,14.05,45.17,1024.43,2039.05,3430.96,3012.00,3451.99,600.32,602.79,42.20,0000 0000 0000 0000 000000
2017-07-16 03:17:05,0.04,0.31,0.00,22.18,25.93,28.60,14.09,45.47,1024.39,2039.00,3430.19,3011.62,3451.31,600.29,602.55,42.25,0000 0000 0000 0000 000000
2017-07-16 03:22:07,0.01,0.31,0.00,22.20,25.96,28.64,13.92,45.16,1024.26,2039.00,3430.00,3011.05,3451.00,599.32,601.46,42.30,0000 0000 0000 0000 000000
2017-07-16 03:27:08,-0.00,0.31,0.00,22.24,26.00,28.69,13.96,45.32,1024.20,2038.98,3429.96,3011.00,3450.97,600.34,602.43,42.35,0000 0000 0000 0000 000000
2017-07-16 03:32:09,0.02,0.31,0.00,22.27,26.03,28.71,14.08,45.40,1024.28,2038.93,3429.41,3010.97,3450.32,599.68,601.63,42.40,0000 0000 0000 0000 000000
2017-07-16 03:37:11,-0.03,0.31,0.00,22.30,26.06,28.74,14.12,45.57,1024.31,2038.48,3429.04,3010.45,3450.00,600.88,602.83,42.46,0000 0000 0000 0000 000000
2017-07-16 03:42:12,-0.01,0.31,0.00,22.33,26.10,28.78,14.01,45.47,1024.26,2038.07,3429.00,3010.05,3449.99,599.42,601.50,42.51,0000 0000 0000 0000 000000
2017-07-16 03:47:13,0.00,0.31,0.00,22.36,26.14,28.79,13.98,45.30,1024.10,2038.01,3428.98,3010.00,3449.83,599.78,601.47,42.56,0000 0000 0000 0000 000000
2017-07-16 03:52:14,0.01,0.31,0.00,22.39,26.17,28.86,14.04,45.40,1024.01,2038.00,3428.72,3009.99,3449.27,599.98,601.73,42.61,0000 0000 0000 0000 000000
2017-07-16 03:57:15,0.01,0.31,0.00,22.44,26.21,28.87,13.98,45.15,1023.96,2038.00,3428.13,3009.82,3449.00,599.36,600.98,42.66,0000 0000 0000 0000 000000
2017-07-16 04:02:16,0.01,0.31,0.00,22.47,26.24,28.95,14.06,45.64,1023.95,2037.96,3428.00,3009.12,3448.91,599.92,601.40,42.71,0000 0000 0000 0000 000000
2017-07-16 04:07:18,-0.00,0.31,0.00,22.49,26.28,28.97,14.03,45.59,1023.95,2037.82,3427.90,3009.01,3448.28,599.62,600.94,42.76,0000 0000 0000 0000 000000
2017-07-16 04:12:19,-0.04,0.31,0.00,22.52,26.31,28.99,14.07,45.69,1023.95,2037.36,3427.51,3009.00,3448.02,600.37,601.59,42.81,0000 0000 0000 0000 000000
2017-07-16 04:17:21,-0.00,0.31,0.00,22.56,26.35,29.03,14.05,45.61,1023.94,2037.05,3427.04,3008.88,3447.99,600.61,601.90,42.86,0000 0000 0000 0000 000000
2017-07-16 04:22:22,0.02,0.31,0.00,22.59,26.38,29.06,13.97,45.42,1023.94,2037.00,3426.99,3008.24,3447.70,599.83,601.04,42.91,0000 0000 0000 0000 000000
2017-07-16 04:27:23,0.01,0.31,0.00,22.62,26.41,29.13,13.99,45.39,1023.94,2037.00,3426.82,3008.00,3447.03,599.61,600.68,42.96,0000 0000 0000 0000 000000
2017-07-16 04:32:24,0.01,0.31,0.00,22.65,26.45,29.15,14.03,45.40,1023.94,2036.99,3426.16,3007.98,3447.00,599.91,601.02,43.01,0000 0000 0000 0000 000000
2017-07-16 04:37:25,0.01,0.31,0.00,22.69,26.49,29.17,14.03,45.50,1023.94,2036.94,3426.00,3007.92,3446.85,599.84,600.79,43.06,0000 0000 0000 0000 000000
2017-07-16 04:42:27,-0.01,0.31,0.00,22.71,26.52,29.23,14.07,45.62,1023.93,2036.55,3425.92,3007.31,3446.12,600.10,600.93,43.11,0000 0000 0000 0000 000000
2017-07-16 04:47:28,-0.02,0.31,0.00,22.74,26.55,29.27,14.06,45.53,1023.90,2036.07,3425.34,3007.01,3445.99,599.91,600.72,43.16,0000 0000 0000 0000 000000
2017-07-16 04:52:29,0.00,0.31,0.00,22.74,26.58,29.44,14.10,45.63,1023.81,2036.01,3425.01,3007.00,3445.74,600.38,600.98,43.21,0000 0000 0000 0000 000000
2017-07-16 04:57:31,0.00,0.31,0.00,22.75,26.61,29.60,14.03,45.54,1023.75,2036.00,3425.00,3006.95,3445.10,599.83,600.63,43.26,0000 0000 0000 0000 000000
2017-07-16 05:02:32,0.03,0.31,0.00,22.76,26.64,29.65,13.98,45.58,1023.72,2036.00,3424.69,3006.33,3445.01,599.30,600.08,43.31,0000 0000 0000 0000 000000
2017-07-16 05:07:33,0.00,0.31,0.00,22.77,26.66,29.68,14.07,45.51,1023.61,2035.99,3424.17,3006.07,3445.00,600.39,600.88,43.36,0000 0000 0000 0000 000000
2017-07-16 05:12:35,0.00,0.31,0.00,22.79,26.69,29.69,14.05,45.58,1023.49,2035.99,3424.01,3006.00,3444.93,600.00,600.51,43.41,0000 0000 0000 0000 000000
2017-07-16 05:17:36,0.01,0.31,0.00,22.80,26.71,29.68,14.07,45.46,1023.49,2035.93,3424.00,3005.99,3444.24,599.77,600.30,43.46,0000 0000 0000 0000 000000
2017-07-16 05:22:37,-0.03,0.31,0.00,22.83,26.74,29.68,14.07,45.48,1023.48,2035.55,3423.89,3005.89,3444.01,600.11,600.48,43.51,0000 0000 0000 0000 000000
2017-07-16 05:27:38,-0.01,0.31,0.00,22.86,26.76,29.67,14.07,45.50,1023.47,2035.13,3423.47,3005.45,3443.99,600.22,600.57,43.56,0000 0000 0000 0000 000000
2017-07-16 05:32:40,0.01,0.31,0.00,22.87,26.78,29.65,14.00,45.56,1023.47,2035.07,3423.09,3005.10,3443.97,600.03,600.22,43.61,0000 0000 0000 0000 000000
2017-07-16 05:37:41,0.00,0.31,0.00,22.90,26.81,29.68,13.93,45.43,1023.47,2035.02,3423.01,3005.01,3443.45,599.69,599.96,43.67,0000 0000 0000 0000 000000
2017-07-16 05:42:43,0.00,0.31,0.00,22.93,26.84,29.68,14.08,45.48,1023.46,2035.00,3422.99,3004.99,3443.02,600.08,600.45,43.72,0000 0000 0000 0000 000000
2017-07-16 05:47:44,0.01,0.31,0.00,22.96,26.86,29.68,14.03,45.38,1023.48,2035.00,3422.57,3004.90,3442.99,599.98,600.10,43.77,0000 0000 0000 0000 000000
2017-07-16 05:52:45,0.01,0.31,0.00,22.97,26.89,29.73,13.99,45.33,1023.47,2034.99,3422.08,3004.47,3442.94,599.97,600.14,43.82,0000 0000 0000 0000 000000
2017-07-16 05:57:47,0.01,0.31,0.00,22.95,26.91,29.87,14.06,45.51,1023.46,2034.97,3422.01,3004.10,3442.72,600.01,600.06,43.87,0000 0000 0000 0000 000000
2017-07-16 06:02:48,-0.01,0.31,0.00,22.95,26.93,29.98,14.08,45.40,1023.45,2034.80,3421.99,3004.01,3442.11,599.95,600.14,43.92,0000 0000 0000 0000 000000
2017-07-16 06:07:49,-0.01,0.31,0.00,22.97,26.95,29.97,14.09,45.29,1023.45,2034.62,3421.97,3004.00,3442.00,600.16,600.22,43.97,0000 0000 0000 0000 000000
2017-07-16 06:12:51,-0.03,0.31,0.00,22.99,26.97,29.95,13.99,45.30,1023.45,2034.20,3421.53,3004.00,3441.99,599.90,599.95,44.02,0000 0000 0000 0000 000000
2017-07-16 06:17:52,-0.00,0.31,0.00,23.02,26.99,29.95,14.06,45.38,1023.45,2034.07,3421.37,3003.98,3441.97,599.94,600.03,44.07,0000 0000 0000 0000 000000
2017-07-16 06:22:54,0.00,0.31,0.00,23.05,27.01,29.95,14.01,45.38,1023.44,2034.02,3421.04,3003.89,3441.81,599.78,599.74,44.12,0000 0000 0000 0000 000000
2017-07-16 06:27:55,0.02,0.31,0.00,23.06,27.02,29.97,13.92,45.36,1023.39,2034.00,3421.01,3003.48,3441.36,599.76,599.61,44.17,0000 0000 0000 0000 000000
2017-07-16 06:32:56,0.01,0.31,0.00,23.07,27.05,30.03,14.05,45.49,1023.35,2034.00,3420.99,3003.12,3441.05,600.21,600.05,44.22,0000 0000 0000 0000 000000
2017-07-16 06:37:58,0.23,0.31,0.00,23.07,27.06,30.04,14.03,45.47,1023.25,2034.00,3417.38,3000.36,3438.00,600.20,599.95,44.27,0000 0000 0000 0000 000000
2017-07-16 06:42:59,1.34,0.38,0.00,23.07,27.07,30.07,14.03,45.38,1023.08,2033.98,3389.96,2980.32,3415.48,600.40,600.01,44.32,0000 0000 0000 0000 000000
2017-07-16 06:48:00,0.01,0.39,0.00,23.10,27.10,30.04,13.98,45.38,1023.02,2033.97,3388.01,2978.98,3413.97,600.02,599.63,44.37,0000 0000 0000 0000 000000
2017-07-16 06:53:02,0.01,0.39,0.00,23.12,27.11,30.05,14.00,45.35,1023.01,2033.93,3387.99,2978.78,3413.51,599.83,599.46,44.42,0000 0000 0000 0000 000000
2017-07-16 06:58:03,0.01,0.39,0.00,23.15,27.12,30.05,14.05,45.30,1022.98,2033.91,3387.96,2978.32,3413.08,599.90,599.40,44.47,0000 0000 0000 0000 000000
2017-07-16 07:03:04,-0.03,0.39,0.00,23.19,27.15,30.04,13.97,45.35,1022.97,2033.56,3387.65,2978.07,3413.00,599.89,599.33,44.52,0000 0000 0000 0000 000000
2017-07-16 07:08:06,-0.01,0.39,0.00,23.23,27.17,30.07,14.02,45.18,1022.96,2033.28,3387.35,2978.01,3413.00,599.79,599.09,44.58,0000 0000 0000 0000 000000
2017-07-16 07:13:07,-0.00,0.39,0.00,23.27,27.19,30.06,13.97,45.23,1022.96,2033.16,3387.14,2978.01,3412.99,600.18,599.42,44.63,0000 0000 0000 0000 000000
2017-07-16 07:18:08,-0.00,0.39,0.00,23.29,27.21,30.06,13.97,45.26,1022.96,2033.05,3387.02,2978.00,3412.95,599.95,599.07,44.68,0000 0000 0000 0000 000000
2017-07-16 07:23:09,0.00,0.39,0.00,23.32,27.23,30.08,13.95,45.32,1022.96,2033.03,3387.00,2977.99,3412.61,600.39,599.47,44.73,0000 0000 0000 0000 000000
2017-07-16 07:28:11,0.01,0.39,0.00,23.37,27.26,30.08,14.04,45.30,1022.89,2033.00,3386.98,2977.89,3412.06,599.91,598.88,44.78,0000 0000 0000 0000 000000
2017-07-16 07:33:12,0.02,0.39,0.00,23.41,27.28,30.06,14.03,45.12,1022.84,2033.00,3386.78,2977.34,3412.00,600.01,599.02,44.83,0000 0000 0000 0000 000000
2017-07-16 07:38:13,0.01,0.39,0.00,23.47,27.31,30.11,13.96,45.09,1022.74,2032.97,3385.93,2976.75,3411.58,599.94,598.63,44.88,0000 0000 0000 0000 000000
2017-07-16 07:43:14,0.30,0.41,0.00,23.52,27.33,30.08,13.91,45.17,1022.57,2032.81,3381.64,2972.24,3405.76,599.77,598.21,44.93,0000 0000 0000 0000 000000
2017-07-16 07:48:15,-0.03,0.40,0.00,23.56,27.36,30.08,13.94,45.16,1022.52,2032.21,3381.01,2971.11,3404.99,599.89,598.36,44.98,0000 0000 0000 0000 000000
2017-07-16 07:53:17,-0.00,0.40,0.00,23.62,27.39,30.07,13.93,45.23,1022.52,2032.11,3381.00,2971.01,3404.90,599.90,598.17,45.03,0000 0000 0000 0000 000000
2017-07-16 07:58:18,0.11,0.41,0.00,23.67,27.41,30.09,13.93,45.17,1022.51,2032.01,3379.76,2969.79,3403.00,599.88,598.02,45.08,0000 0000 0000 0000 000000
2017-07-16 08:03:19,0.02,0.41,0.00,23.72,27.45,30.12,14.04,45.28,1022.51,2032.00,3378.67,2968.93,3401.97,600.14,598.23,45.13,0000 0000 0000 0000 000000
2017-07-16 08:08:21,0.03,0.41,0.00,23.77,27.48,30.14,13.96,45.36,1022.49,2032.00,3378.05,2968.39,3401.52,600.10,598.00,45.18,0000 0000 0000 0000 000000
2017-07-16 08:13:22,0.00,0.41,0.00,23.81,27.51,30.17,14.01,45.37,1022.49,2031.99,3378.00,2968.03,3401.03,600.40,598.25,45.23,0000 0000 0000 0000 000000
2017-07-16 08:18:23,0.08,0.41,0.00,23.86,27.54,30.19,13.94,45.30,1022.48,2031.97,3377.25,2967.28,3400.16,600.13,597.95,45.28,0000 0000 0000 0000 000000
2017-07-16 08:23:24,0.12,0.42,0.00,23.90,27.57,30.20,13.93,45.32,1022.48,2031.70,3374.34,2964.21,3396.87,599.90,597.64,45.33,0000 0000 0000 0000 000000
2017-07-16 08:28:25,-0.04,0.42,0.00,23.95,27.61,30.24,13.93,45.34,1022.48,2031.17,3374.01,2964.00,3396.10,599.63,597.19,45.38,0000 0000 0000 0000 000000
2017-07-16 08:33:26,0.00,0.42,0.00,23.99,27.64,30.28,13.99,45.40,1022.48,2031.02,3374.00,2963.99,3396.00,600.44,597.89,45.43,0000 0000 0000 0000 000000
2017-07-16 08:38:27,0.01,0.42,0.00,24.03,27.68,30.29,13.95,45.33,1022.48,2031.00,3373.93,2963.81,3395.91,599.68,597.12,45.48,0000 0000 0000 0000 000000
2017-07-16 08:43:29,0.10,0.43,0.00,24.07,27.71,30.33,13.93,45.35,1022.48,2031.00,3372.49,2962.30,3394.32,599.92,597.20,45.54,0000 0000 0000 0000 000000
2017-07-16 08:48:30,-0.00,0.43,0.00,24.11,27.74,30.36,13.88,45.42,1022.48,2030.91,3372.01,2961.99,3393.87,599.72,597.04,45.59,0000 0000 0000 0000 000000
2017-07-16 08:53:32,-0.04,0.43,0.00,24.14,27.78,30.39,14.01,45.42,1022.48,2030.38,3371.98,2961.86,3393.18,599.98,597.11,45.64,0000 0000 0000 0000 000000
2017-07-16 08:58:33,0.00,0.42,0.00,24.18,27.81,30.44,13.93,45.43,1022.48,2030.03,3371.73,2961.26,3393.00,599.97,597.02,45.69,0000 0000 0000 0000 000000
2017-07-16 09:03:35,0.01,0.43,0.00,24.21,27.85,30.47,13.93,45.28,1022.46,2030.00,3371.07,2961.01,3392.95,599.84,596.88,45.74,0000 0000 0000 0000 000000
2017-07-16 09:08:36,0.11,0.43,0.00,24.24,27.88,30.55,13.90,45.24,1022.47,2030.00,3369.67,2959.59,3391.01,600.00,596.97,45.79,0000 0000 0000 0000 000000
2017-07-16 09:13:37,0.41,0.45,0.00,24.27,27.91,30.60,13.96,45.23,1022.46,2030.00,3363.31,2952.50,3383.34,600.20,597.08,45.84,0000 0000 0000 0000 000000
2017-07-16 09:18:39,0.00,0.45,0.00,24.32,27.95,30.63,13.98,45.28,1022.47,2029.99,3362.98,2952.01,3382.71,600.38,597.21,45.89,0000 0000 0000 0000 000000
2017-07-16 09:23:40,0.21,0.46,0.00,24.37,27.98,30.66,13.90,45.10,1022.48,2029.92,3359.83,2950.19,3380.30,600.17,596.88,45.94,0000 0000 0000 0000 000000
2017-07-16 09:28:42,0.30,0.47,0.00,24.41,28.01,30.72,13.95,45.28,1022.48,2029.52,3351.55,2945.18,3374.59,600.03,596.65,45.99,0000 0000 0000 0000 000000
2017-07-16 09:33:43,0.36,0.49,0.00,24.46,28.05,30.73,13.95,45.16,1022.47,2029.10,3342.18,2939.97,3368.76,600.10,596.69,46.04,0000 0000 0000 0000 000000
2017-07-16 09:38:44,0.40,0.51,0.00,24.51,28.08,30.71,13.93,45.09,1022.48,2029.06,3331.94,2934.20,3362.33,600.19,596.62,46.09,0000 0000 0000 0000 000000
2017-07-16 09:43:45,0.04,0.52,0.00,24.55,28.11,30.73,13.89,45.27,1022.47,2029.00,3329.17,2932.89,3360.78,600.41,596.70,46.14,0000 0000 0000 0000 000000
2017-07-16 09:48:46,0.02,0.52,0.00,24.59,28.14,30.75,13.84,45.18,1022.45,2028.99,3329.01,2932.20,3360.10,599.46,595.72,46.19,0000 0000 0000 0000 000000
2017-07-16 09:53:48,0.00,0.52,0.00,24.64,28.17,30.77,13.86,45.04,1022.42,2028.98,3328.99,2932.01,3360.00,599.87,596.03,46.24,0000 0000 0000 0000 000000
2017-07-16 09:58:49,0.00,0.52,0.00,24.68,28.20,30.80,13.89,45.06,1022.36,2028.86,3328.48,2931.99,3359.79,600.13,596.19,46.29,0000 0000 0000 0000 000000
2017-07-16 10:03:50,-0.03,0.52,0.00,24.72,28.24,30.82,13.86,45.24,1022.24,2028.46,3328.04,2931.77,3359.20,599.89,595.70,46.34,0000 0000 0000 0000 000000
2017-07-16 10:08:52,-0.00,0.52,0.00,24.77,28.27,30.85,13.87,45.18,1022.13,2028.03,3327.98,2931.09,3358.98,600.15,595.88,46.39,0000 0000 0000 0000 000000
2017-07-16 10:13:53,0.38,0.53,0.00,24.82,28.31,30.87,13.91,45.17,1022.07,2028.00,3323.42,2926.31,3352.95,600.28,595.87,46.44,0000 0000 0000 0000 000000
2017-07-16 10:18:54,0.04,0.54,0.00,24.86,28.34,30.90,13.93,45.23,1022.04,2028.00,3321.77,2924.24,3350.99,600.15,595.54,46.49,0000 0000 0000 0000 000000
2017-07-16 10:23:55,0.02,0.54,0.00,24.90,28.38,30.93,13.88,45.20,1022.01,2027.99,3321.14,2924.00,3350.55,600.31,595.75,46.55,0000 0000 0000 0000 000000
2017-07-16 10:28:57,0.17,0.55,0.00,24.95,28.42,30.94,13.88,45.08,1022.02,2027.74,3319.05,2921.55,3347.55,599.93,595.26,46.60,0000 0000 0000 0000 000000
2017-07-16 10:33:58,0.40,0.56,0.00,25.01,28.46,30.97,13.86,45.28,1022.01,2027.18,3314.08,2916.42,3341.82,599.85,595.13,46.65,0000 0000 0000 0000 000000
2017-07-16 10:38:59,0.20,0.58,0.00,25.09,28.51,31.04,13.82,45.09,1022.01,2027.05,3307.68,2910.58,3334.85,599.92,594.96,46.70,0000 0000 0000 0000 000000
2017-07-16 10:44:01,0.02,0.58,0.00,25.17,28.55,31.10,13.87,45.09,1022.01,2027.00,3307.00,2909.67,3333.92,600.09,594.96,46.75,0000 0000 0000 0000 000000
2017-07-16 10:49:02,0.03,0.58,0.00,25.25,28.60,31.16,13.87,45.05,1022.01,2027.00,3306.42,2909.05,3333.15,600.31,594.96,46.80,0000 0000 0000 0000 000000
2017-07-16 10:54:03,-0.00,0.59,0.00,25.34,28.65,31.23,13.89,45.18,1022.01,2026.97,3306.03,2908.99,3332.99,599.99,594.55,46.85,0000 0000 0000 0000 000000
2017-07-16 10:59:05,-0.01,0.58,0.00,25.44,28.69,31.30,13.88,45.24,1022.00,2026.65,3305.75,2908.65,3332.58,600.45,594.69,46.90,0000 0000 0000 0000 000000
2017-07-16 11:04:06,0.34,0.60,0.00,25.54,28.74,31.37,13.78,45.00,1021.99,2026.10,3298.80,2903.63,3326.96,599.96,594.06,46.95,0000 0000 0000 0000 000000
2017-07-16 11:09:08,0.03,0.60,0.00,25.62,28.79,31.46,13.79,44.78,1021.99,2026.00,3297.16,2902.62,3325.99,600.04,593.94,47.00,0000 0000 0000 0000 000000
2017-07-16 11:14:09,0.02,0.60,0.00,25.70,28.84,31.53,13.82,44.77,1021.99,2025.98,3296.91,2902.03,3325.32,600.00,593.82,47.05,0000 0000 0000 0000 000000
2017-07-16 11:19:10,0.01,0.60,0.00,25.77,28.90,31.57,13.79,44.61,1021.99,2025.97,3296.26,2901.97,3325.00,599.70,593.33,47.10,0000 0000 0000 0000 000000
2017-07-16 11:24:12,-0.03,0.60,0.00,25.83,28.95,31.65,13.75,44.55,1021.99,2025.48,3296.00,2901.37,3324.66,599.38,593.02,47.15,0000 0000 0000 0000 000000
2017-07-16 11:29:13,-0.01,0.60,0.00,25.89,29.00,31.67,13.84,44.18,1021.97,2025.13,3295.89,2901.02,3324.08,600.07,593.40,47.20,0000 0000 0000 0000 000000
2017-07-16 11:34:14,0.01,0.60,0.00,25.94,29.04,31.74,13.90,44.66,1021.94,2025.00,3295.13,2900.96,3323.95,600.71,593.91,47.25,0000 0000 0000 0000 000000
2017-07-16 11:39:15,0.07,0.61,0.00,25.96,29.08,31.81,13.85,44.76,1021.69,2024.99,3294.57,2900.01,3322.94,600.25,593.33,47.30,0000 0000 0000 0000 000000
2017-07-16 11:44:17,0.02,0.61,0.00,25.97,29.12,31.85,13.81,44.53,1021.52,2024.85,3293.21,2899.03,3321.95,600.32,593.29,47.35,0000 0000 0000 0000 000000
2017-07-16 11:49:18,-0.01,0.61,0.00,25.99,29.16,31.88,13.77,44.67,1021.52,2024.28,3292.68,2898.63,3321.07,600.16,593.16,47.40,0000 0000 0000 0000 000000
2017-07-16 11:54:19,0.07,0.61,0.00,25.98,29.19,31.92,13.79,44.63,1021.51,2024.10,3291.46,2897.47,3319.74,599.95,592.88,47.45,0000 0000 0000 0000 000000
2017-07-16 11:59:20,0.01,0.61,0.00,25.93,29.22,32.00,13.83,44.30,1021.51,2024.00,3290.64,2896.97,3319.00,599.70,592.77,47.50,0000 0000 0000 0000 000000
2017-07-16 12:04:21,0.02,0.61,0.00,25.85,29.25,32.21,13.79,44.36,1021.51,2024.00,3290.03,2896.58,3318.89,600.01,593.26,47.56,0000 0000 0000 0000 000000
2017-07-16 12:09:23,0.01,0.61,0.00,25.75,29.26,32.30,13.87,44.35,1021.51,2024.00,3290.00,2896.06,3318.34,600.50,593.95,47.61,0000 0000 0000 0000 000000
2017-07-16 12:14:24,0.00,0.61,0.00,25.63,29.28,32.41,13.80,44.71,1021.51,2023.99,3289.91,2896.01,3318.04,599.68,593.43,47.66,0000 0000 0000 0000 000000
2017-07-16 12:19:25,0.00,0.62,0.00,25.52,29.30,32.40,13.88,44.67,1021.50,2023.96,3289.41,2896.00,3318.00,599.80,593.60,47.71,0000 0000 0000 0000 000000
2017-07-16 12:24:26,0.00,0.62,0.00,25.44,29.31,32.40,13.86,44.49,1021.50,2023.98,3289.13,2896.00,3318.00,599.72,593.81,47.76,0000 0000 0000 0000 000000
2017-07-16 12:29:27,0.00,0.62,0.00,25.36,29.32,32.39,13.87,44.47,1021.47,2023.97,3289.02,2895.99,3317.98,600.11,594.27,47.81,0000 0000 0000 0000 000000
2017-07-16 12:34:28,-0.00,0.62,0.00,25.30,29.32,32.38,13.82,44.48,1021.30,2023.95,3289.00,2895.98,3317.95,599.94,594.13,47.86,0000 0000 0000 0000 000000
2017-07-16 12:39:30,-0.00,0.62,0.00,25.24,29.32,32.37,13.86,44.43,1021.04,2023.94,3289.00,2895.94,3317.88,600.25,594.31,47.91,0000 0000 0000 0000 000000
2017-07-16 12:44:31,0.01,0.62,0.00,25.21,29.33,32.35,13.83,44.43,1021.01,2023.93,3288.96,2895.79,3317.47,599.73,593.86,47.96,0000 0000 0000 0000 000000
2017-07-16 12:49:32,-0.00,0.62,0.00,25.17,29.32,32.32,13.96,44.97,1021.01,2023.69,3288.55,2895.32,3317.10,600.38,594.50,48.01,0000 0000 0000 0000 000000
2017-07-16 12:54:34,-0.00,0.62,0.00,25.14,29.32,32.31,13.86,44.66,1021.01,2023.47,3288.24,2895.10,3317.02,599.74,593.97,48.06,0000 0000 0000 0000 000000